QBITO

Last updated on April 5, 2018, 12:15 a.m. UTC

1 42728U 98067MH  18094.75741705  .00021434  00000-0  20175-3 0  9993
2 42728  51.6399  10.4161 0001047 343.7194  16.3768 15.67045608 48829

Satellite is not in orbit.